TimeCST,TemperatureF,Dew PointF,Humidity,Sea Level PressureIn,VisibilityMPH,Wind Direction,Wind SpeedMPH,Gust SpeedMPH,PrecipitationIn,Events,Conditions,WindDirDegrees,DateUTC
12:53 AM,-6.0,-9.9,83,30.41,10.0,Calm,Calm,-,N/A,,Clear,0,2013-03-07 06:53:00
1:53 AM,-4.0,-11.0,72,30.43,10.0,NW,3.5,-,N/A,,Clear,310,2013-03-07 07:53:00
2:53 AM,-6.0,-13.0,72,30.43,10.0,Calm,Calm,-,N/A,,Clear,0,2013-03-07 08:53:00
3:53 AM,-8.0,-14.1,75,30.45,10.0,Calm,Calm,-,N/A,,Clear,0,2013-03-07 09:53:00
4:53 AM,-9.9,-16.1,74,30.44,10.0,Calm,Calm,-,N/A,,Clear,0,2013-03-07 10:53:00
5:53 AM,-9.9,-17.0,71,30.45,10.0,Calm,Calm,-,N/A,,Clear,0,2013-03-07 11:53:00
6:53 AM,-11.0,-17.0,75,30.47,10.0,Calm,Calm,-,N/A,,Clear,0,2013-03-07 12:53:00
7:53 AM,-6.0,-13.0,72,30.48,10.0,Calm,Calm,-,N/A,,Clear,0,2013-03-07 13:53:00
8:53 AM,5.0,1.0,84,30.47,10.0,Calm,Calm,-,N/A,,Clear,0,2013-03-07 14:53:00
9:53 AM,17.1,9.0,71,30.46,10.0,ESE,3.5,-,N/A,,Clear,110,2013-03-07 15:53:00
10:53 AM,21.9,10.0,60,30.46,10.0,SE,5.8,-,N/A,,Clear,130,2013-03-07 16:53:00
11:53 AM,23.0,10.9,60,30.45,10.0,ESE,5.8,-,N/A,,Clear,120,2013-03-07 17:53:00
12:53 PM,27.0,10.9,51,30.42,10.0,SE,4.6,-,N/A,,Clear,130,2013-03-07 18:53:00
1:53 PM,28.9,12.0,49,30.40,10.0,SE,3.5,-,0.00,,Clear,130,2013-03-07 19:53:00
2:53 PM,30.9,12.9,47,30.38,10.0,SSE,8.1,-,0.00,,Clear,150,2013-03-07 20:53:00
3:53 PM,30.9,14.0,50,30.38,10.0,SE,11.5,-,N/A,,Clear,130,2013-03-07 21:53:00
4:53 PM,30.0,14.0,51,30.38,10.0,SE,12.7,-,N/A,,Scattered Clouds,140,2013-03-07 22:53:00
5:53 PM,26.1,14.0,60,30.38,10.0,SE,8.1,-,N/A,,Scattered Clouds,130,2013-03-07 23:53:00
6:53 PM,25.0,14.0,63,30.38,10.0,ESE,6.9,-,N/A,,Mostly Cloudy,110,2013-03-08 00:53:00
7:53 PM,24.1,12.9,62,30.38,10.0,SE,9.2,-,N/A,,Partly Cloudy,130,2013-03-08 01:53:00
8:53 PM,23.0,14.0,68,30.36,10.0,SE,10.4,-,N/A,,Clear,140,2013-03-08 02:53:00
9:53 PM,19.9,12.9,74,30.35,10.0,SE,8.1,-,N/A,,Clear,130,2013-03-08 03:53:00
10:32 PM,19.4,12.2,74,30.27,10.0,SE,6.9,-,N/A,,Mostly Cloudy,130,2013-03-08 04:32:00
10:53 PM,19.0,14.0,81,30.36,10.0,SE,6.9,-,N/A,,Overcast,140,2013-03-08 04:53:00
11:48 PM,17.6,14.0,86,30.28,10.0,SE,4.6,-,N/A,,Scattered Clouds,140,2013-03-08 05:48:00
11:53 PM,18.0,14.0,84,30.36,10.0,SE,4.6,-,N/A,,Partly Cloudy,130,2013-03-08 05:53:00